Retour au catalogue

ARIANE 42P+ DEB

LostHEO
NORAD 34191·DEBRIS·🇫🇷 France

Lancé Oct 28, 1992 depuis Guiana Space Centre

Loading…

Prochains Passages (prochaines 24 heures)

TLE

PériméSource: Space-Track

Époque: Jun 13, 2021, 07:37 UTC

1 34191U 92072X   21164.31803326  .00000057  00000-0  32602-2 0  9995
2 34191   7.6615 125.5902 6514903 186.4857 318.7951  2.91970247168286

Suivez ARIANE 42P+ DEB en temps réel avec AllMySat

Download on the App Store